[[{"header":{"parameterUnit":"m.s-1","parameterCategory":1,"la1":30.2991,"la2":30.254,"lo1":-89.0895,"lo2":-89.0444,"dy":0.0017,"dx":0.0017,"nx":28,"ny":28,"refTime":"2024-07-18T03:00:00:Z","depth":0,"parameterNumber":2,"parameterNumberName":"U-component_of_WINDS"},"data":[0,0,0,0,0,0,0,0,0,0,0,0,0,0,0,0,0,0,0,0,0,0,0,0,0,0,0,0,0,0,0,0,0,0,0,0,0,0,0,0,0,0,0,0,0,0,0,0,0,0,0,0,0,0,0,0,0,0,2.6979,2.6979,0,2.7028,2.7028,2.7029,2.6988,2.6986,2.6984,2.6983,2.703,2.7033,2.7036,0,0,0,0,0,0,0,0,0,0,0,0,0,2.6847,2.6849,2.6979,2.698,2.698,2.7028,2.7028,2.7029,2.6988,2.6986,2.6984,2.6982,2.7029,2.7032,2.7036,0,0,0,0,0,0,0,0,0,0,0,0,0,2.6901,2.685,2.6979,2.6966,2.6965,2.7028,2.7028,2.7029,2.6989,2.6986,2.6983,2.6981,2.7028,2.7032,2.7036,2.7114,0,0,2.7049,2.7051,0,0,0,0,0,0,0,0,2.6898,2.6905,2.6967,2.6967,2.6966,2.6999,2.6999,2.7057,2.6989,2.6979,2.6983,2.698,2.7022,2.7026,2.7041,2.7116,2.7118,2.705,2.7052,2.7054,2.7055,0,0,0,0,0,0,0,2.6894,2.6903,2.6998,2.6968,2.6967,2.6956,2.6961,2.701,2.7014,2.698,2.6977,2.6984,2.7021,2.7037,2.7042,2.7119,2.705,2.7053,2.7056,2.7058,2.7257,2.726,0,0,0,0,0,0,2.6892,2.69,2.6997,2.7,2.6925,2.696,2.6966,2.6991,2.7014,2.7015,2.6986,2.6982,2.7031,2.7037,2.7043,2.7133,2.7054,2.7058,2.7061,2.7255,2.7258,2.7261,0,0,0,0,0,0,2.6889,2.6901,2.6995,2.6949,2.696,2.6965,2.6994,2.6993,2.7009,2.7018,2.7018,2.7002,2.7029,2.7037,2.7096,2.7134,2.706,2.7064,2.7251,2.7256,2.726,2.7316,0,0,0,0,0,0,2.6886,2.69,2.6931,2.695,2.6963,2.7048,2.6996,2.6996,2.7017,2.7012,2.7033,2.7034,2.7028,2.709,2.7101,2.7139,2.7067,2.7248,2.7253,2.7258,2.731,2.7321,2.733,0,0,0,0,0,2.6881,2.6944,2.6932,2.6944,2.7001,2.705,2.7057,2.705,2.702,2.705,2.7055,2.7033,2.7129,2.7097,2.7108,2.7148,2.7246,2.7252,2.7258,2.7306,2.7319,2.733,0,0,0,0,0,0,2.6928,2.6947,2.6934,2.7005,2.7027,2.7043,2.7081,2.7064,2.7094,2.7088,2.7076,2.7081,2.7143,2.7152,2.7115,2.7223,2.7182,2.7191,2.7215,2.7228,2.7237,2.7233,2.7071,0,0,0,0,0,2.6947,2.6987,2.7,2.7062,2.7074,2.7076,2.7097,2.7089,2.711,2.7119,2.7128,2.7149,2.7183,2.7206,2.7239,2.7312,2.7315,2.7345,2.7355,2.7364,2.737,2.7407,2.742,2.7281,2.7281,2.7281,0,0,2.6986,2.7001,2.7027,2.7072,2.7088,2.7127,2.7083,2.7128,2.7156,2.7125,2.7181,2.7189,2.7211,2.7277,2.7306,2.7286,2.741,2.7371,2.7378,2.738,2.7415,2.7428,2.744,2.7285,2.7285,2.7284,0,0,2.7077,2.7094,2.7146,2.7163,2.7187,2.7188,2.72,2.722,2.7224,2.728,2.7257,2.729,2.7351,2.7367,2.7383,2.7479,2.7459,2.749,2.7542,2.7578,2.7589,2.7598,2.763,2.7642,2.7498,2.7498,2.7498,0,2.7123,2.7182,2.7175,2.7221,2.724,2.7215,2.7266,2.7283,2.7316,2.733,2.7307,2.7381,2.7394,2.7462,2.7486,2.7501,2.7513,2.7487,2.7588,2.7598,2.7607,2.7637,2.7649,2.7501,2.7501,2.7501,2.75,0,2.7235,2.7277,2.7316,2.735,2.7374,2.7422,2.7421,2.7446,2.7437,2.7439,2.7495,2.7511,2.7545,2.7561,2.7552,2.7627,2.7613,2.759,2.7548,2.7623,2.7651,2.7663,2.7506,2.7505,2.7504,2.7503,0,0,2.7356,2.7385,2.7399,2.7413,2.7438,2.7469,2.7516,2.755,2.7571,2.7595,2.7632,2.7684,2.7661,2.768,2.7672,2.7704,2.7777,2.7676,2.7677,2.7692,2.7858,2.7873,2.7887,2.7764,2.7767,2.7768,2.7855,0,2.7446,2.7528,2.7523,2.7599,2.7636,2.7613,2.7653,2.7672,2.7676,2.7706,2.771,2.7746,2.7716,2.7726,2.7757,2.7761,2.7809,2.7755,2.7797,2.7798,2.7789,2.7902,2.7919,2.8,2.7866,2.7868,2.7869,0,2.7562,2.759,2.7671,2.7688,2.7704,2.774,2.777,2.7801,2.7821,2.7821,2.7841,2.7828,2.7874,2.7833,2.7894,2.7857,2.7874,2.7879,2.7881,2.7883,2.7837,2.7904,2.8026,2.8037,2.7887,2.7886,2.7884,0,2.7639,2.7697,2.7752,2.7765,2.7788,2.7814,2.7824,2.7842,2.7862,2.7888,2.7901,2.7932,2.7948,2.7972,2.7966,2.7938,2.8028,2.7987,2.8027,2.8027,2.8045,2.8044,2.8169,2.8061,2.8061,2.806,2.806,0,2.7739,2.7788,2.7787,2.782,2.7874,2.7867,2.792,2.7928,2.7944,2.7977,2.7959,2.799,2.7983,2.8014,2.8011,2.806,2.8068,2.8068,2.8066,2.8068,2.8068,2.8077,2.807,2.8064,2.8063,2.8062,2.8062,0,2.7833,2.7835,2.7892,2.7909,2.7915,2.7953,2.7967,2.7998,2.8,2.8043,2.8052,2.8055,2.8091,2.8089,2.8129,2.8126,2.8186,2.8179,2.8179,2.8177,2.8216,2.8212,2.835,2.8366,2.825,2.8251,2.8252,0,2.7895,2.7933,2.7954,2.7975,2.7987,2.8022,2.8043,2.8037,2.8059,2.8084,2.8111,2.8145,2.8171,2.8228,2.8233,2.8263,2.8255,2.8301,2.8259,2.826,2.8252,2.8249,2.8252,2.8309,2.831,2.8311,2.8312,0,2.8005,2.8003,2.8034,2.8065,2.809,2.8114,2.8136,2.8154,2.815,2.8176,2.8212,2.8232,2.8273,2.8305,2.8334,2.8343,2.8326,2.8326,2.8336,2.8337,2.8335,2.8334,2.8199,2.8322,2.8321,2.832,2.832,2.8319,2.8083,2.8114,2.8134,2.8168,2.8184,2.8204,2.8234,2.824,2.827,2.8303,2.8298,2.8337,2.8355,2.8391,2.8403,2.8433,2.8416,2.8432,2.8436,2.8439,2.8442,2.8333,2.8439,2.8439,2.8438,2.8438,2.8438,0,2.8189,2.82,2.8232,2.8263,2.829,2.8274,2.8296,2.8319,2.8355,2.8373,2.84,2.844,2.8472,2.8479,2.8509,2.8532,2.8524,2.8539,2.8536,2.8538,2.8457,2.8444,2.8544,2.8544,2.8544,2.8544,2.8544,2.8544,2.8247,2.8299,2.83,2.8358,2.8369,2.8408,2.8422,2.844,2.8455,2.8501,2.8527,2.8532,2.8546,2.8576,2.8604,2.8605,2.8616,2.8634,2.8632,2.8555,2.8544,2.8534,2.8521,2.8637,2.8637,2.871,2.871,2.8711]},{"header":{"parameterUnit":"m.s-1","parameterCategory":1,"la1":30.2991,"la2":30.254,"lo1":-89.0895,"lo2":-89.0444,"dy":0.0017,"dx":0.0017,"nx":28,"ny":28,"refTime":"2024-07-18T03:00:00:Z","depth":0,"parameterNumber":3,"parameterNumberName":"V-component_of_WINDS"},"data":[0,0,0,0,0,0,0,0,0,0,0,0,0,0,0,0,0,0,0,0,0,0,0,0,0,0,0,0,0,0,0,0,0,0,0,0,0,0,0,0,0,0,0,0,0,0,0,0,0,0,0,0,0,0,0,0,0,0,1.4007,1.4009,0,1.4154,1.4156,1.4157,1.4161,1.4159,1.4157,1.4155,1.4303,1.4308,1.4314,0,0,0,0,0,0,0,0,0,0,0,0,0,1.3725,1.3731,1.4007,1.4009,1.4011,1.4154,1.4156,1.4158,1.4161,1.4159,1.4157,1.4155,1.4301,1.4308,1.4314,0,0,0,0,0,0,0,0,0,0,0,0,0,1.3857,1.3732,1.4007,1.403,1.4033,1.4153,1.4156,1.4158,1.4161,1.4159,1.4156,1.4154,1.4299,1.4307,1.4315,1.4421,0,0,1.4341,1.4345,0,0,0,0,0,0,0,0,1.385,1.3868,1.4025,1.4029,1.4033,1.4136,1.411,1.4246,1.4162,1.4113,1.4155,1.4152,1.4249,1.4262,1.4295,1.4428,1.4435,1.4342,1.4347,1.435,1.4353,0,0,0,0,0,0,0,1.3841,1.3861,1.4065,1.4027,1.4032,1.4031,1.4047,1.4136,1.4194,1.4117,1.4117,1.4135,1.4251,1.4287,1.4299,1.4437,1.4341,1.4349,1.4354,1.4357,1.4662,1.4665,0,0,0,0,0,0,1.3828,1.3854,1.4061,1.407,1.3933,1.4039,1.4056,1.4106,1.4193,1.4204,1.4137,1.4135,1.4274,1.4289,1.4304,1.4433,1.435,1.4358,1.4363,1.4659,1.4663,1.4666,0,0,0,0,0,0,1.3822,1.3846,1.4055,1.3962,1.3989,1.4046,1.4102,1.411,1.4146,1.4209,1.4219,1.4164,1.4272,1.4292,1.4392,1.4438,1.4362,1.437,1.4656,1.466,1.4664,1.4693,0,0,0,0,0,0,1.3813,1.3844,1.3886,1.3963,1.3994,1.4142,1.4105,1.4115,1.4161,1.4159,1.4236,1.4246,1.4272,1.4379,1.44,1.4448,1.4376,1.4652,1.4658,1.4663,1.4688,1.4698,1.4706,0,0,0,0,0,1.3803,1.3888,1.3888,1.3913,1.4048,1.4145,1.4162,1.419,1.4165,1.4207,1.4247,1.4244,1.4429,1.439,1.4413,1.4465,1.4649,1.4656,1.4663,1.4684,1.4696,1.4706,0,0,0,0,0,0,1.3815,1.3899,1.39,1.4012,1.4071,1.4145,1.4199,1.4202,1.4269,1.4265,1.4296,1.4313,1.4412,1.4448,1.4402,1.4571,1.4536,1.4548,1.4544,1.4556,1.4565,1.4555,1.4383,0,0,0,0,0,1.383,1.3903,1.3972,1.4065,1.4094,1.4142,1.4185,1.4201,1.4264,1.4288,1.4336,1.4395,1.4466,1.4513,1.4582,1.4693,1.4709,1.4739,1.4748,1.4756,1.4766,1.4825,1.4839,1.4689,1.4689,1.4688,0,0,1.3864,1.3918,1.3963,1.4068,1.4116,1.4189,1.4163,1.4242,1.4296,1.43,1.4398,1.4434,1.4502,1.4607,1.4656,1.464,1.4811,1.4764,1.477,1.4776,1.4834,1.4848,1.4861,1.4693,1.4692,1.4692,0,0,1.3961,1.4011,1.4093,1.4141,1.4213,1.4244,1.4263,1.4336,1.4361,1.4459,1.4463,1.4527,1.465,1.4698,1.4739,1.4852,1.4851,1.4873,1.4921,1.4979,1.499,1.5001,1.5041,1.5055,1.4883,1.4883,1.4883,0,1.3993,1.4106,1.4134,1.4214,1.4259,1.4266,1.4348,1.4393,1.4484,1.4514,1.4495,1.4649,1.4695,1.4811,1.4838,1.4871,1.4893,1.4865,1.4987,1.4998,1.5008,1.5046,1.5061,1.4885,1.4885,1.4885,1.4884,0,1.4141,1.4218,1.4275,1.4364,1.4415,1.4496,1.4535,1.4583,1.4594,1.4626,1.4725,1.478,1.486,1.4889,1.49,1.5006,1.4994,1.498,1.4946,1.5024,1.506,1.5075,1.4888,1.4887,1.4887,1.4886,0,0,1.4252,1.4354,1.4374,1.4414,1.4493,1.4553,1.4632,1.4711,1.4752,1.4813,1.488,1.4982,1.497,1.5016,1.5032,1.5083,1.5168,1.5063,1.5065,1.508,1.5286,1.5296,1.5313,1.5167,1.517,1.5172,1.528,0,1.4359,1.4502,1.4528,1.4652,1.4723,1.4729,1.4798,1.4853,1.4884,1.4947,1.4981,1.5053,1.5032,1.5059,1.5109,1.5147,1.5209,1.5139,1.5228,1.5231,1.5212,1.5332,1.5343,1.5443,1.5295,1.5297,1.5299,0,1.4503,1.4569,1.47,1.4768,1.4799,1.4861,1.4934,1.4995,1.5056,1.5075,1.5125,1.5135,1.5216,1.5177,1.5287,1.5239,1.5276,1.53,1.5304,1.5315,1.527,1.5345,1.5475,1.549,1.5322,1.532,1.5318,0,1.4571,1.4692,1.4786,1.4819,1.4901,1.4944,1.498,1.5039,1.5084,1.5147,1.5177,1.5248,1.5287,1.5341,1.537,1.5339,1.5478,1.5441,1.5495,1.5494,1.5525,1.5523,1.5663,1.5548,1.5548,1.5548,1.5547,0,1.4688,1.4767,1.4817,1.4875,1.4964,1.4992,1.5079,1.5114,1.5166,1.5229,1.5237,1.5296,1.533,1.5393,1.5415,1.5503,1.552,1.5537,1.5542,1.5537,1.5535,1.5563,1.5557,1.5552,1.5551,1.555,1.5549,0,1.4779,1.4816,1.4919,1.4987,1.5006,1.5069,1.5127,1.5182,1.5212,1.5292,1.5312,1.5359,1.5433,1.5467,1.5558,1.5573,1.5673,1.5673,1.5653,1.5655,1.5706,1.5701,1.587,1.5893,1.5762,1.5764,1.5765,0,1.4852,1.4914,1.4989,1.5032,1.5069,1.5139,1.5185,1.5214,1.5261,1.5335,1.5381,1.5455,1.5517,1.5635,1.5677,1.5746,1.5748,1.5802,1.5759,1.5751,1.5749,1.5745,1.5751,1.5811,1.5812,1.5813,1.5814,0,1.4977,1.4991,1.5058,1.513,1.5185,1.5243,1.53,1.5334,1.5372,1.5424,1.5501,1.5548,1.5642,1.5715,1.5787,1.5822,1.5824,1.5827,1.5843,1.5839,1.5824,1.5833,1.5675,1.5823,1.5822,1.5822,1.5821,1.5821,1.5061,1.5116,1.5177,1.525,1.5296,1.5348,1.5403,1.544,1.5504,1.5584,1.5596,1.5677,1.5735,1.5832,1.5869,1.5932,1.5919,1.5942,1.5948,1.5953,1.5957,1.5814,1.5945,1.5945,1.5944,1.5944,1.5944,0,1.5186,1.5225,1.5292,1.5372,1.5429,1.5425,1.5487,1.5535,1.5607,1.5661,1.5721,1.5808,1.5879,1.5925,1.5996,1.6037,1.604,1.6055,1.6053,1.606,1.5964,1.5943,1.6052,1.6052,1.6052,1.6052,1.6052,1.6052,1.5258,1.535,1.5371,1.5485,1.5523,1.5604,1.5639,1.5687,1.573,1.5827,1.5886,1.5916,1.5966,1.6041,1.6105,1.6116,1.6142,1.6158,1.6169,1.6078,1.6067,1.6057,1.6037,1.6163,1.6163,1.626,1.626,1.6261]}]]